Location: Degersen
(52.2871°N, 9.5716°E)
Time: 05:31:56
(UTC+00:00)

Cosmos 1933 Rocket - Visible Passes

Search period start: 19 April 2026 00:00
Search period end: 29 April 2026 00:00
Orbit: 601 x 622 km, 82.5° (Epoch: 18 April)

Date Brightness Start Highest point End Pass type
(mag) Time Alt. Az. Time Alt. Az. Time Alt. Az.
19 Apr 6.7 20:25:45 10° W 20:28:18 15° WNW 20:30:50 10° NNW visible
20 Apr 4.3 19:00:31 10° SSW 19:04:51 61° WNW 19:09:16 10° N visible
21 Apr 7.5 03:27:30 10° NE 03:27:50 10° NE 03:28:09 10° ENE visible
21 Apr 5.3 19:15:46 10° SW 19:19:53 38° WNW 19:24:03 10° N visible
22 Apr 6.2 19:31:19 10° WSW 19:34:59 25° WNW 19:38:41 10° N visible
23 Apr 6.7 19:47:15 10° WSW 19:50:10 17° WNW 19:53:05 10° NNW visible
24 Apr 7.2 20:03:58 10° WNW 20:05:26 11° WNW 20:06:54 10° NW visible
26 Apr 7.2 03:02:48 10° NNE 03:04:59 13° ENE 03:07:08 10° E visible
27 Apr 6.7 03:16:57 10° NNE 03:20:12 20° ENE 03:23:26 10° ESE visible
28 Apr 7.2 19:25:11 10° W 19:27:16 13° WNW 19:29:22 10° NNW visible
